When you browse on this site, cookies collect data to enhance your experience and personalize the content and advertising you see.
Visit our Privacy Policy to learn more. By continuing to use the site, you agree to this use of cookies and data.
  • In Slovakia
  • List of Countries
  • For 7 days
  • Water Temperature
  • Satellite Maps
  • Weather Map
  • Weather Widgets
  • user-avatar
    Login

    Hourly Weather Brik-Alga

    Today, 18 January, Friday

    Time Temperature Precipitation Wind Pressure Humidity
    00:00 -17°C° 0 mm 2 mps 730 mmHg 98%
    01:00 -17°C° 0 mm 2 mps 730 mmHg 98%
    02:00 -17°C° 0 mm 2 mps 730 mmHg 98%
    03:00 -19°C° 0 mm 3 mps 730 mmHg 98%
    04:00 -19°C° 0 mm 3 mps 730 mmHg 98%
    05:00 -19°C° 0 mm 3 mps 730 mmHg 98%
    06:00 -20°C° 0 mm 4 mps 730 mmHg 98%
    07:00 -20°C° 0 mm 4 mps 730 mmHg 98%
    08:00 -19°C° 0 mm 4 mps 730 mmHg 97%
    09:00 -19°C° 0 mm 5 mps 730 mmHg 96%
    10:00 -18°C° 0 mm 6 mps 729 mmHg 95%
    11:00 -17°C° 0 mm 6 mps 729 mmHg 93%
    12:00 -17°C° 0 mm 7 mps 729 mmHg 90%
    13:00 -15°C° 0 mm 7 mps 729 mmHg 87%
    14:00 -15°C° 0 mm 7 mps 729 mmHg 88%
    15:00 -15°C° 0 mm 7 mps 729 mmHg 90%
    16:00 -15°C° 0 mm 6 mps 729 mmHg 91%
    17:00 -15°C° 0 mm 6 mps 729 mmHg 92%
    18:00 -14°C° 0 mm 5 mps 730 mmHg 94%
    19:00 -14°C° 0 mm 5 mps 730 mmHg 95%
    20:00 -14°C° 0 mm 5 mps 730 mmHg 95%
    21:00 -13°C° 0 mm 5 mps 730 mmHg 95%
    22:00 -12°C° 0 mm 4 mps 730 mmHg 96%
    23:00 -12°C° 0 mm 4 mps 730 mmHg 96%

    Tomorrow, 19 January, Saturday

    Time Temperature Precipitation Wind Pressure Humidity
    00:00 -12°C° 0 mm 4 mps 730 mmHg 96%
    01:00 -12°C° 0 mm 4 mps 731 mmHg 97%
    02:00 -12°C° 0 mm 4 mps 730 mmHg 97%
    03:00 -11°C° 0 mm 4 mps 730 mmHg 97%
    04:00 -11°C° 0 mm 4 mps 730 mmHg 97%
    05:00 -11°C° 0 mm 4 mps 730 mmHg 97%
    06:00 -11°C° 0 mm 4 mps 730 mmHg 96%
    07:00 -11°C° 0 mm 4 mps 729 mmHg 96%
    08:00 -12°C° 0 mm 5 mps 729 mmHg 96%
    09:00 -11°C° 0 mm 5 mps 729 mmHg 95%
    10:00 -11°C° 0 mm 6 mps 729 mmHg 95%
    11:00 -10°C° 0 mm 6 mps 729 mmHg 95%
    12:00 -10°C° 0 mm 6 mps 729 mmHg 95%
    13:00 -10°C° 0 mm 6 mps 729 mmHg 95%
    14:00 -9°C° 0 mm 6 mps 729 mmHg 95%
    15:00 -9°C° 0 mm 6 mps 728 mmHg 95%
    16:00 -8°C° 0 mm 5 mps 728 mmHg 95%
    17:00 -8°C° 0 mm 5 mps 728 mmHg 95%
    18:00 -8°C° 0 mm 5 mps 728 mmHg 95%
    19:00 -8°C° 0 mm 5 mps 728 mmHg 95%
    20:00 -8°C° 0 mm 5 mps 728 mmHg 96%
    21:00 -8°C° 0 mm 5 mps 727 mmHg 96%
    22:00 -8°C° 0 mm 5 mps 727 mmHg 96%
    23:00 -8°C° 0.2 mm 5 mps 727 mmHg 96%

    Day after tomorrow, 20 January, Sunday

    Time Temperature Precipitation Wind Pressure Humidity
    00:00 -8°C° 0.2 mm 5 mps 726 mmHg 96%
    01:00 -8°C° 0.2 mm 6 mps 726 mmHg 95%
    02:00 -7°C° 0.3 mm 5 mps 726 mmHg 95%
    03:00 -7°C° 0.3 mm 5 mps 726 mmHg 95%
    04:00 -7°C° 0.3 mm 5 mps 725 mmHg 95%
    05:00 -6°C° 0.3 mm 5 mps 725 mmHg 95%
    06:00 -6°C° 0.3 mm 5 mps 725 mmHg 95%
    07:00 -5°C° 0.3 mm 4 mps 726 mmHg 96%
    08:00 -7°C° 0.2 mm 5 mps 726 mmHg 95%
    09:00 -10°C° 0.2 mm 5 mps 727 mmHg 94%
    10:00 -11°C° 0.2 mm 5 mps 727 mmHg 93%
    11:00 -13°C° 0 mm 5 mps 728 mmHg 92%
    12:00 -14°C° 0 mm 4 mps 728 mmHg 92%
    13:00 -15°C° 0 mm 4 mps 729 mmHg 92%
    14:00 -15°C° 0 mm 4 mps 729 mmHg 92%
    15:00 -15°C° 0 mm 4 mps 730 mmHg 93%
    16:00 -16°C° 0 mm 4 mps 730 mmHg 94%
    17:00 -16°C° 0 mm 4 mps 731 mmHg 95%
    18:00 -17°C° 0 mm 4 mps 731 mmHg 96%
    19:00 -17°C° 0 mm 4 mps 732 mmHg 96%
    20:00 -17°C° 0 mm 4 mps 732 mmHg 96%
    21:00 -17°C° 0 mm 4 mps 732 mmHg 97%
    22:00 -17°C° 0 mm 4 mps 733 mmHg 97%
    23:00 -17°C° 0 mm 4 mps 733 mmHg 97%

    21 January, Monday

    Time Temperature Precipitation Wind Pressure Humidity
    00:00 -17°C° 0 mm 4 mps 734 mmHg 97%
    01:00 -16°C° 0 mm 4 mps 734 mmHg 97%
    02:00 -16°C° 0 mm 4 mps 734 mmHg 97%
    03:00 -16°C° 0 mm 4 mps 734 mmHg 97%
    04:00 -17°C° 0 mm 5 mps 734 mmHg 97%
    05:00 -18°C° 0 mm 5 mps 734 mmHg 97%
    06:00 -20°C° 0 mm 6 mps 734 mmHg 97%
    07:00 -20°C° 0 mm 6 mps 734 mmHg 97%
    08:00 -20°C° 0 mm 7 mps 734 mmHg 96%
    09:00 -20°C° 0 mm 7 mps 734 mmHg 96%
    10:00 -21°C° 0 mm 7 mps 734 mmHg 95%
    11:00 -20°C° 0 mm 7 mps 735 mmHg 95%
    12:00 -19°C° 0 mm 7 mps 735 mmHg 95%
    13:00 -19°C° 0 mm 7 mps 735 mmHg 94%
    14:00 -19°C° 0 mm 7 mps 734 mmHg 94%
    15:00 -19°C° 0 mm 7 mps 734 mmHg 94%
    16:00 -19°C° 0 mm 7 mps 734 mmHg 94%
    17:00 -19°C° 0 mm 7 mps 734 mmHg 94%
    18:00 -20°C° 0 mm 6 mps 734 mmHg 94%
    19:00 -20°C° 0 mm 6 mps 733 mmHg 94%
    20:00 -20°C° 0 mm 6 mps 733 mmHg 94%
    21:00 -21°C° 0 mm 6 mps 733 mmHg 94%
    22:00 -21°C° 0 mm 6 mps 732 mmHg 94%
    23:00 -20°C° 0 mm 6 mps 732 mmHg 93%

    22 January, Tuesday

    Time Temperature Precipitation Wind Pressure Humidity
    00:00 -20°C° 0 mm 6 mps 731 mmHg 91%
    01:00 -20°C° 0 mm 6 mps 730 mmHg 90%
    02:00 -19°C° 0.2 mm 7 mps 729 mmHg 91%
    03:00 -18°C° 0.2 mm 8 mps 729 mmHg 91%
    04:00 -17°C° 0.2 mm 8 mps 728 mmHg 91%
    05:00 -17°C° 0.7 mm 8 mps 727 mmHg 92%
    06:00 -16°C° 0.7 mm 9 mps 725 mmHg 93%
    07:00 -16°C° 0.7 mm 9 mps 724 mmHg 93%
    08:00 -14°C° 0.7 mm 9 mps 723 mmHg 93%
    09:00 -12°C° 0.7 mm 9 mps 722 mmHg 93%
    10:00 -10°C° 0.7 mm 9 mps 722 mmHg 93%
    11:00 -9°C° 0.9 mm 9 mps 721 mmHg 92%
    12:00 -8°C° 0.9 mm 10 mps 720 mmHg 92%
    13:00 -7°C° 0.9 mm 10 mps 720 mmHg 91%
    14:00 -9°C° 0.1 mm 10 mps 721 mmHg 90%
    15:00 -11°C° 0.1 mm 9 mps 721 mmHg 89%
    16:00 -15°C° 0.1 mm 9 mps 722 mmHg 88%
    17:00 -16°C° 0 mm 8 mps 723 mmHg 89%
    18:00 -17°C° 0 mm 7 mps 725 mmHg 90%
    19:00 -17°C° 0 mm 6 mps 727 mmHg 91%
    20:00 -20°C° 0 mm 6 mps 727 mmHg 93%
    21:00 -22°C° 0 mm 5 mps 728 mmHg 95%
    22:00 -24°C° 0 mm 4 mps 728 mmHg 97%
    23:00 -26°C° 0 mm 4 mps 729 mmHg 97%

    23 January, Wednesday

    Time Temperature Precipitation Wind Pressure Humidity
    00:00 -27°C° 0 mm 4 mps 729 mmHg 98%
    01:00 -27°C° 0 mm 3 mps 730 mmHg 98%
    02:00 -29°C° 0 mm 3 mps 730 mmHg 98%
    03:00 -29°C° 0 mm 3 mps 730 mmHg 98%
    04:00 -30°C° 0 mm 3 mps 731 mmHg 99%
    05:00 -30°C° 0 mm 3 mps 731 mmHg 98%
    06:00 -30°C° 0 mm 3 mps 732 mmHg 98%
    07:00 -30°C° 0 mm 3 mps 732 mmHg 98%
    08:00 -29°C° 0 mm 3 mps 732 mmHg 98%
    09:00 -30°C° 0 mm 4 mps 733 mmHg 98%
    10:00 -29°C° 0 mm 4 mps 733 mmHg 98%
    11:00 -27°C° 0 mm 4 mps 734 mmHg 97%
    12:00 -26°C° 0 mm 4 mps 734 mmHg 97%
    13:00 -26°C° 0 mm 4 mps 734 mmHg 97%
    14:00 -25°C° 0.1 mm 4 mps 734 mmHg 97%
    15:00 -25°C° 0.1 mm 4 mps 734 mmHg 97%
    16:00 -25°C° 0.1 mm 4 mps 734 mmHg 97%
    17:00 -24°C° 0.1 mm 4 mps 734 mmHg 96%
    18:00 -24°C° 0.1 mm 4 mps 734 mmHg 96%
    19:00 -23°C° 0.1 mm 4 mps 735 mmHg 96%
    20:00 -23°C° 0.1 mm 4 mps 735 mmHg 96%
    21:00 -23°C° 0.1 mm 4 mps 735 mmHg 96%
    22:00 -23°C° 0.1 mm 4 mps 735 mmHg 96%
    23:00 -23°C° 0.1 mm 4 mps 735 mmHg 96%
    Show more